Regional Weather Roundup
Issued by NWS

Home | Current Version | Previous Version | Graphics & Text | Print | Product List | Glossary Off
Versions: 1 2 3 4 5 6 7 8 9 10 11 12 13 14 15 16 17 18 19 20 21 22 23 24 25 26 27 28 29 30 31 32 33 34 35 36 37 38 39 40 41 42 43 44 45 46 47 48 49 50

905
ASUS43 KDTX 250710
RWRMI
MICHIGAN HOURLY REGIONAL WEATHER ROUNDUP
NATIONAL WEATHER SERVICE DETROIT/PONTIAC MI
ISSUED BY NATIONAL WEATHER SERVICE GRAND RAPIDS MI
300 AM EDT SUN JUN 25 2017

NOTE: "FAIR" INDICATES FEW OR NO CLOUDS BELOW 12,000 FEET WITH NO
SIGNIFICANT WEATHER AND/OR OBSTRUCTION TO VISIBILITY.

MIZ047>049-052>055-059>063-066>070-074>076-081>083-250800-
SOUTHEAST LOWER MICHIGAN

CITY           SKY/WX    TMP DP  RH WIND       PRES   REMARKS
ADRIAN         CLEAR     57  49  74 W5        30.03F
ALMA           MOCLDY    55  50  84 SW7       29.97S
ANN ARBOR      CLEAR     48  47  96 S5        30.00F
BAD AXE        CLEAR     56  53  92 SW5       29.96S
DETROIT CITY   PTCLDY    62  48  60 W5        29.99F
DETROIT        PTCLDY    60  49  66 W6        30.01S
FLINT          CLEAR     57  48  72 SW6       29.98F
GROSSE ILE     CLEAR     60  49  67 W6        29.99S
HILLSDALE      PTCLDY    54  46  76 SW5       30.02F
HOWELL         CLEAR     57  46  67 CALM      29.99F

CITY           SKY/WX    TMP DP  RH WIND       PRES   REMARKS
JACKSON        CLEAR     55  49  80 SW6       30.01F
LANSING        PTCLDY    56  47  71 SW8       29.99F
MASON          CLEAR     56  49  78 CALM      29.99F
MONROE         CLEAR     58  49  74 W6        30.00F
MT. CLEMENS    CLOUDY    64  49  58 W8        29.97F
PONTIAC        CLEAR     60  48  64 SW3       29.98F
PORT HOPE        N/A     58  54  86 SW3       29.93S
PORT HURON     CLOUDY    57  50  77 CALM      29.98S
TRI CITIES     CLEAR     57  52  83 SW6       29.96F
YPSILANTI      CLEAR     58  50  75 W7        30.00F
$$
MIZ043>046-050>051-056>058-064>065-071>073-077>080-250800-
SOUTHWEST LOWER MICHIGAN

CITY           SKY/WX    TMP DP  RH WIND       PRES   REMARKS
BATTLE CREEK   CLOUDY    57  52  83 SW8       30.01F
BENTON HARBOR  CLOUDY    63  50  62 SW6       30.02F
BIG RAPIDS     CLOUDY    56  48  74 W8        29.95S
COLDWATER      MOCLDY    58  50  75 SW5       30.02F
HOLLAND        CLOUDY    61  47  59 W13G20    30.01S
GRAND RAPIDS   MOCLDY    58  51  78 W9        29.99S
KALAMAZOO      CLOUDY    59  50  72 SW9       30.02S
MARSHALL       MOCLDY    56  51  83 SW3       30.01F
MOUNT PLEASANT PTCLDY    57  48  73 SW7       29.95S
MUSKEGON       CLEAR     59  47  64 W17G24    29.99S
STURGIS        MOCLDY    55  50  82 SW5       30.02F
$$
MIZ016>042-250800-
NORTHERN LOWER MICHIGAN

CITY           SKY/WX    TMP DP  RH WIND       PRES   REMARKS
ALPENA         MOCLDY    56  55  97 W3        29.91F
BEAVER ISLAND  FOG       50  50 100 CALM      29.91S VSB 1/4
BELLAIRE       MOCLDY    56  54  90 CALM      29.92S
CADILLAC       CLOUDY    51  49  93 W3        29.93S
CHARLEVOIX     PTCLDY    56  56 100 S3        29.94S
GAYLORD        CLOUDY    54  51  90 W5        29.93S
HOUGHTON LAKE  CLOUDY    56  51  84 S5        29.93F
MANISTEE       CLOUDY    55  51  86 W9        29.95R
OSCODA         PTCLDY    55  53  94 SW7       29.93S
PELLSTON       CLOUDY    56  54  93 W5        29.91F
TRAVERSE CITY  CLOUDY    56  52  86 S3        29.91F
LUDINGTON      LGT RAIN  55  52  92 N7        29.95S
$$
MIZ007>008-015-250800-
EASTERN UPPER MICHIGAN

CITY           SKY/WX    TMP DP  RH WIND       PRES   REMARKS
KINROSS        CLOUDY    52  49  89 W5        29.90S
MACKINAC ISLAN CLOUDY    55  51  87 W6        29.90S
NEWBERRY       RAIN      51  51  97 W3        29.91S
S. S. MARIE    CLOUDY    53  48  83 W9        29.89S
$$
MIZ004>006-011>014-085-250800-
CENTRAL UPPER MICHIGAN

CITY           SKY/WX    TMP DP  RH WIND       PRES   REMARKS
MANISTIQUE     CLOUDY    53  50  89 N5        29.91S
ESCANABA       CLOUDY    53  53 100 N3        29.92F
MENOMINEE      LGT RAIN  53  52  96 W5        29.95S
SAWYER-GWINN   CLOUDY    50  50  98 CALM      29.93S
$$
MIZ001>003-009>011-084-250800-
WESTERN UPPER MICHIGAN

CITY           SKY/WX    TMP DP  RH WIND       PRES   REMARKS
IRON MOUNTAIN  LGT RAIN  53  50  89 NW3       29.92S
HOUGHTON       FOG       49  48  97 NW7       29.93S VSB 1/2
COPPER HARBOR    N/A     49  48  97 CALM      29.92S
IRONWOOD       CLOUDY    53  52  96 W6        29.97S
$$

ABBREVIATIONS USED IN REMARKS
   TC - TEMPERATURE IN CELSIUS
  WCI - WIND CHILL INDEX
   HX - HEAT INDEX
  VSB - VISIBILITY





USA.gov is the U.S. government's official web portal to all federal, state and local government web resources and services.